Weather past 2 weeks in Jamestown, Saint Helena

Now
57 °F

Cool.


Feels Like: 54 °F
Forecast: 66 / 68 °F
Wind: 18 mph from Southeast

Location: Saint Helena Island

Current Time: Aug 28, 2014 at 3:32:50 AM

Latest Report: Aug 28, 2014 at 3:00 AM


Visibility: N/A

Pressure: 30.12 "Hg

Humidity: 93%

Dew point: 55 °F

Location of JamestownLocation

Historic Weather in Jamestown — Graph

°F

Jamestown temperature yesterday

Maximum temperature yesterday: 64 °F (at 1:00 PM)
Minimum temperature yesterday: 58 °F (at 9:00 PM)
Average temperature yesterday: 60 °F

Past Weeks' High & Low Weather Summary

 TemperatureHumidityPressure
High66 °F (Aug 21, 1:00 PM)100% (Aug 13, 9:00 AM)30.22 "Hg (Aug 13, 9:00 AM)
Low55 °F (Aug 18, 4:00 AM)61% (Aug 22, 11:00 AM)30.03 "Hg (Aug 17, 4:00 PM)
Average59 °F86%30.13 "Hg
* Reported Aug 13 2:00 AM — Aug 28 2:00 AM, Jamestown, Weather by CustomWeather, © 2014

Note: Actual official high and low records may vary slightly from our data, if they occured in-between our weather recording intervals... More about our weather records

Advertising

Jamestown weather history for previous 24 hours

 ConditionsComfort  
Time TempWeatherWind HumidityBarometerVisibility
2:00 AM
Aug 28
59 °FCool.21 mph78%30.12 "HgN/A
1:00 AM58 °FCool.21 mph91%30.14 "HgN/A
11:00 PM
Aug 27
59 °FCool.21 mph93%30.16 "HgN/A
10:00 PM59 °FCool.23 mph82%30.15 "HgN/A
9:00 PM58 °FCool.25 mph96%30.14 "HgN/A
8:00 PM59 °FCool.23 mph91%30.11 "HgN/A
7:00 PM59 °FCool.22 mph84%30.09 "HgN/A
6:00 PM58 °FCool.22 mph92%30.09 "HgN/A
5:00 PM60 °FCool.24 mph80%30.09 "HgN/A
4:00 PM61 °FCool.21 mph87%30.08 "HgN/A
3:00 PM62 °FSprinkles. Low clouds.22 mph85%30.07 "Hg3 mi
2:00 PM64 °FOvercast.21 mph83%30.09 "Hg3 mi
1:00 PM64 °FOvercast.21 mph71%30.12 "Hg19 mi
12:00 PM60 °FSprinkles. Low clouds.20 mph85%30.15 "Hg22 mi
11:00 AM62 °FOvercast.23 mph76%30.16 "Hg19 mi
9:00 AM61 °FOvercast.21 mph79%30.17 "Hg22 mi
8:00 AM60 °FCool.20 mph83%30.16 "HgN/A
7:00 AM60 °FCool.18 mph72%30.14 "HgN/A
5:00 AM59 °FCool.17 mph80%30.13 "HgN/A
4:00 AM59 °FCool.21 mph75%30.12 "HgN/A
3:00 AM59 °FCool.22 mph77%30.12 "HgN/A
Weather by CustomWeather, © 2014

See weather overviewHow to use our weather pages